Regional Weather Roundup
Issued by NWS

Home | Current Version | Previous Version | Graphics & Text | Print | Product List | Glossary On
Versions: 1 2 3 4 5 6 7 8 9 10 11 12 13 14 15 16 17 18 19 20 21 22 23 24 25 26 27 28 29 30 31 32 33 34 35 36 37 38 39 40 41 42 43 44 45 46 47 48 49 50
000
ASUS43 KMPX 301910
RWRMN
WEATHER ROUNDUP FOR MINNESOTA
NATIONAL WEATHER SERVICE TWIN CITIES/CHANHASSEN MN
200 PM CDT WED JUL 30 2014


NOTE: "FAIR" INDICATES FEW OR NO CLOUDS BELOW 12,000 FEET WITH NO
SIGNIFICANT WEATHER AND/OR OBSTRUCTIONS TO VISIBILITY. N/A MEANS
CURRENT SKY AND/OR WEATHER CONDITIONS ARE NOT AVAILABLE.

MNZ060>063-068>070-302000-
   Twin Cities Metro

CITY           SKY/WX    TMP DP  RH WIND       PRES   REMARKS
TWIN CITIES    MOSUNNY   81  54  39 W9G20     30.06F
ST PAUL        MOSUNNY   79  57  46 N9        30.05F
CRYSTAL        MOSUNNY   81  55  40 NW10      30.05F
BLAINE         PTSUNNY   81  57  44 W12G20    30.06F
LAKEVILLE      MOSUNNY   77  57  50 NW9       30.07S
EDEN PRAIRIE   MOSUNNY   80  58  46 NW12      30.06F
SOUTH ST PAUL  PTSUNNY   78  55  44 NW9       30.05F
LAKE ELMO      FAIR      77  61  57 NW8       30.07F
$$
MNZ001>005-007-008-013>017-022>024-027-028-302000-
   Northwest Minnesota

CITY           SKY/WX    TMP DP  RH WIND       PRES   REMARKS
BEMIDJI        MOSUNNY   75  57  52 N13       30.08F
HALLOCK        SUNNY     79  52  38 NW9       30.07F
ROSEAU         SUNNY     79  61  53 NW7       30.06F
WARROAD        SUNNY     77  59  53 W8        30.05F
THIEF RVR FALL SUNNY     75  52  43 W9        30.09F
CROOKSTON      SUNNY     77  54  44 NW6       30.09F
FOSSTON        SUNNY     75  54  46 CALM      30.10F
DETROIT LAKES  SUNNY     75  52  43 N13       30.12F
MOORHEAD       SUNNY     77  55  47 N7        30.10F
PARK RAPIDS    MOSUNNY   78  52  40 NW12G17   30.08F
$$
MNZ006-009>011-018-025>026-302000-
   North Central Minnesota

CITY           SKY/WX    TMP DP  RH WIND       PRES   REMARKS
BAUDETTE       SUNNY     77  56  48 NW14      30.05F
FLAG ISLAND    SUNNY     75  55  50 NW12      30.02F
INTL FALLS     PTSUNNY   77  57  50 NW13      30.01F
WASKISH        MOSUNNY   77  61  57 W7        30.05F
BIG FORK       MOSUNNY  N/A N/A N/A NW6       30.04
LONGVILLE      MOSUNNY   75  57  53 NW6       30.07F
GRAND RAPIDS   MOSUNNY   75  54  46 NW17G25   30.05F
CRANE LAKE     MOSUNNY   73  57  56 N9G17     30.00F
ORR            MOSUNNY   77  57  50 NW13      29.99F
COOK           MOSUNNY   75  57  53 NW8G16    30.01F
$$
MNZ012-019>021-037-302000-
   Northeast Minnesota

CITY           SKY/WX    TMP DP  RH WIND       PRES   REMARKS
DULUTH         PTSUNNY   76  60  57 NW14      30.01F
ELY            MOSUNNY   73  57  56 NW8G21    29.98F
HIBBING        MOSUNNY   77  57  50 NW15      30.02F
EVELETH        PTSUNNY   75  55  50 NW12G20   30.02F
DULUTH HARBOR  LGT RAIN  75  64  69 SW7       30.00F
TWO HARBORS    MOSUNNY   75  63  64 W3        29.97F
SILVER BAY     SUNNY     75  63  64 SW5       29.96F
GRAND MARAIS     N/A     55  51  86 W7        29.94F
G MARAIS ARPRT MOSUNNY   70  55  60 W7        29.97F
$$
MNZ029>031-032-039>041-046>048-054>057-064-302000-
   West Central Minnesota

CITY           SKY/WX    TMP DP  RH WIND       PRES   REMARKS
FERGUS FALLS   MOSUNNY   75  54  46 NW12      30.10F
WHEATON        MOSUNNY   75  54  46 NW6       30.13F
MORRIS         MOSUNNY   79  57  47 NW8       30.11F
ALEXANDRIA     MOSUNNY   76  54  46 NW9       30.12F
ELBOW LAKE     FAIR      75  59  57 NW9       30.11F
WADENA         MOSUNNY   75  55  50 W7        30.10S
GLENWOOD       MOSUNNY   79  55  44 NW9       30.12F
APPLETON       MOSUNNY   79  52  38 NW5       30.11F
BENSON         MOSUNNY   75  55  50 N6        30.11F
ORTONVILLE     MOSUNNY   77  52  41 NW9       30.12S
MADISON        MOSUNNY   79  55  44 N10       30.12F
WILLMAR        FAIR      77  52  41 N5        30.12F
$$
MNZ033>034-036-042>043-049>051-058-059-302000-
   Central Minnesota

CITY           SKY/WX    TMP DP  RH WIND       PRES   REMARKS
ST CLOUD       SUNNY     82  50  32 W9G21     30.07F
SAUK CENTRE    FAIR      76  54  46 NW10      30.10F
PAYNESVILLE    SUNNY     76  52  42 W8        30.10F HAZE
AITKIN         SUNNY     79  61  53 W8        30.05S
PINE RIVER     MOSUNNY   75  57  53 N7        30.10S
BRAINERD       MOSUNNY   77  55  46 N13       30.07F
STAPLES        SUNNY     79  52  38 NW8       30.09S
LONG PRAIRIE   FAIR      73  54  49 NW8       30.10F
LITTLE FALLS   MOSUNNY   77  52  41 W12       30.08F
LITCHFIELD     MOSUNNY   79  55  44 NW8       30.10F
BUFFALO        PTSUNNY   78  53  41 NW12      30.09S
MAPLE LAKE     MOSUNNY   78  57  47 W9        30.09F
$$
MNZ037-044-045-052-053-302000-
   East Central Minnesota

CITY           SKY/WX    TMP DP  RH WIND       PRES   REMARKS
PRINCETON      SUNNY     81  54  39 W10G17    30.07S
MORA           SUNNY     73  57  56 NW8       30.07S
CAMBRIDGE      SUNNY     81  61  50 NW9       30.04F
RUSH CITY      MOSUNNY   77  58  52 NW6       30.05F
MOOSE LAKE     MOSUNNY   77  59  53 W9        30.02F
HINCKLEY       FAIR      77  61  57 W8        30.05S
CLOQUET        MOSUNNY   75  57  53 NW8       30.02F
MCGREGOR       SUNNY     77  59  53 NW10G16   30.05S
$$
MNZ071>073-080-081-089-090-097-098-302000-
   Southwest Minnesota

CITY           SKY/WX    TMP DP  RH WIND       PRES   REMARKS
MONTEVIDEO     MOSUNNY   79  57  47 NE5       30.13S
GRANITE FALLS  MOSUNNY   76  56  50 W7        30.14S
CANBY          SUNNY     78  48  34 N5        30.14S
MARSHALL       SUNNY     75  54  46 NW9       30.12F
REDWOOD FALLS  SUNNY     79  53  40 VRB5      30.11F
OLIVIA         MOSUNNY   77  55  47 W6        30.11F
PIPESTONE      PTSUNNY   73  52  46 N7        30.15F
WINDOM         SUNNY     75  54  46 W5        30.14S
WORTHINGTON    SUNNY     73  52  46 N7        30.16S
JACKSON        MOSUNNY   75  55  50 NW5       30.14F
TRACY          SUNNY     76  56  49 N6        30.14S
SLAYTON        MOSUNNY   74  50  42 CALM      30.16S
$$
MNZ065>067-074>077-082>085-091>093-302000-
   South Central Minnesota

CITY           SKY/WX    TMP DP  RH WIND       PRES   REMARKS
MANKATO        PTSUNNY   77  54  44 N8        30.09F
NEW ULM        SUNNY     77  57  50 NW12      30.10F
ST JAMES       SUNNY     79  55  44 N7        30.12F
FAIRMONT       SUNNY     79  54  41 N8        30.12S
GLENCOE        SUNNY     78  53  40 N9        30.09S
FARIBAULT      PTSUNNY   81  52  36 NW8       30.09S
OWATONNA       SUNNY     79  55  44 NW13      30.09S
WASECA         MOSUNNY   77  54  44 W7        30.11S
ALBERT LEA     MOSUNNY   79  55  44 NW5       30.10S
$$
MNZ078>079-086>088-094>096-302000-
   Southeast Minnesota

CITY           SKY/WX    TMP DP  RH WIND       PRES   REMARKS
ROCHESTER      MOSUNNY   77  59  53 N7        30.10F
RED WING       MOSUNNY   79  59  50 NW7       30.05F
STANTON        PTSUNNY   79  58  48 N7        30.06F
DODGE CENTER   MOSUNNY   75  57  53 N8        30.09S
WINONA         SUNNY     77  57  50 N6        30.06F
AUSTIN         MOSUNNY   75  57  53 N6        30.09S
PRESTON        PTSUNNY   73  64  71 N8        30.09S
$$
ABBREVIATIONS USED IN REMARKS
   TC - TEMPERATURES IN CELSIUS
  WCI - WIND CHILL INDEX
   HX - HEAT INDEX
  VSB - VISIBILITY
$$



USA.gov is the U.S. government's official web portal to all federal, state and local government web resources and services.